Location: Mohawk View
(42.7837°N, 73.7885°W)
Time: 12:22:05
(UTC+00:00)

ATLAS CENTAUR R/B - Pass Details

Date: 17 June 2021
Orbit: 472 x 671 km, 64.6° (Epoch: 13 June)

Event Time Altitude Azimuth Distance (km) Brightness Sun altitude
Rises 04:04:42 0° 318° (NW) 2,819 5.9 -22.8°
Reaches altitude 10° 04:07:00 10° 310° (NW) 1,948 4.8 -22.9°
Enters shadow 04:10:56 37° 247° (WSW) 978 2.4 -23.0°
